TimeEST,TemperatureF,Dew PointF,Humidity,Sea Level PressureIn,VisibilityMPH,Wind Direction,Wind SpeedMPH,Gust SpeedMPH,PrecipitationIn,Events,Conditions,WindDirDegrees,DateUTC
12:58 AM,64.0,59.0,84,30.00,10.0,SSW,5.8,-,N/A,,Clear,200,2013-12-04 05:58:00
1:58 AM,63.0,59.0,87,29.99,10.0,SSW,5.8,-,N/A,,Clear,200,2013-12-04 06:58:00
2:58 AM,63.0,60.1,90,29.99,10.0,South,5.8,-,N/A,,Clear,190,2013-12-04 07:58:00
3:58 AM,63.0,60.1,90,30.00,10.0,SSW,5.8,-,N/A,,Clear,210,2013-12-04 08:58:00
4:53 AM,60.8,59.0,94,30.01,10.0,Calm,Calm,-,N/A,,Mostly Cloudy,0,2013-12-04 09:53:00
4:58 AM,62.1,60.1,93,30.01,10.0,Calm,Calm,-,N/A,,Mostly Cloudy,0,2013-12-04 09:58:00
5:07 AM,60.8,59.0,94,30.02,10.0,Calm,Calm,-,N/A,,Scattered Clouds,0,2013-12-04 10:07:00
5:58 AM,60.1,57.9,93,30.04,10.0,Calm,Calm,-,N/A,,Partly Cloudy,0,2013-12-04 10:58:00
6:58 AM,59.0,57.9,96,30.05,10.0,Calm,Calm,-,N/A,,Clear,0,2013-12-04 11:58:00
7:58 AM,60.1,59.0,96,30.06,10.0,Calm,Calm,-,N/A,,Clear,0,2013-12-04 12:58:00
8:58 AM,66.0,62.1,87,30.07,5.0,SSW,4.6,-,N/A,,Clear,210,2013-12-04 13:58:00
9:58 AM,71.1,64.9,81,30.09,5.0,Variable,4.6,-,N/A,,Haze,0,2013-12-04 14:58:00
10:58 AM,70.0,64.0,81,30.09,10.0,ENE,5.8,-,N/A,,Clear,60,2013-12-04 15:58:00
11:58 AM,73.0,64.9,76,30.07,10.0,East,6.9,-,N/A,,Clear,90,2013-12-04 16:58:00
12:58 PM,77.0,66.0,69,30.05,10.0,East,3.5,-,N/A,,Scattered Clouds,80,2013-12-04 17:58:00
1:58 PM,75.0,64.9,71,30.04,10.0,ESE,8.1,-,N/A,,Mostly Cloudy,110,2013-12-04 18:58:00
2:58 PM,73.0,64.9,76,30.03,10.0,SE,6.9,-,N/A,,Mostly Cloudy,130,2013-12-04 19:58:00
3:58 PM,73.0,66.0,79,30.04,10.0,SE,5.8,-,N/A,,Clear,140,2013-12-04 20:58:00
4:58 PM,71.1,64.9,81,30.05,10.0,ESE,5.8,-,N/A,,Partly Cloudy,120,2013-12-04 21:58:00
5:58 PM,66.9,64.0,90,30.06,10.0,SSE,3.5,-,N/A,,Clear,150,2013-12-04 22:58:00
6:58 PM,66.9,64.0,90,30.08,10.0,SSE,6.9,-,N/A,,Clear,160,2013-12-04 23:58:00
7:58 PM,66.9,64.9,93,30.08,10.0,SSE,9.2,-,N/A,,Clear,160,2013-12-05 00:58:00
8:58 PM,66.9,64.0,90,30.09,10.0,SSE,5.8,-,N/A,,Clear,160,2013-12-05 01:58:00
9:58 PM,66.9,64.0,90,30.10,10.0,SSE,6.9,-,N/A,,Clear,160,2013-12-05 02:58:00
10:58 PM,66.0,64.0,93,30.12,10.0,North,-9999.0,-,N/A,,Clear,0,2013-12-05 03:58:00
11:58 PM,64.0,63.0,96,30.13,5.0,Calm,Calm,-,N/A,,Clear,0,2013-12-05 04:58:00